�N����,����,�~����,�C��,���x,�C��,����,���ϕ���,�ő�u�ԕ���,�ő厞����,���˗�,�I�_���x,�n�����x,�ő啗���N��,DTYPE
"23/03/04","00:10",0.0,3.3,84.0,1021.3,328.4,3.0,4.2,322.9,0.00,0.9,8.6,"00:07:32",1
"23/03/04","00:20",0.0,3.3,84.1,1021.3,344.3,2.6,4.1,346.4,0.00,0.9,8.5,"00:14:44",1
"23/03/04","00:30",0.0,3.1,84.2,1021.3,334.6,2.6,3.3,342.7,0.00,0.7,8.5,"00:22:56",1
"23/03/04","00:40",0.0,3.0,84.7,1021.1,334.8,2.7,4.7,351.2,0.00,0.7,8.5,"00:39:26",1
"23/03/04","00:50",0.0,3.1,84.8,1021.3,340.3,3.0,4.8,343.2,0.00,0.8,8.4,"00:46:54",1
"23/03/04","01:00",0.0,3.1,84.9,1021.1,336.0,2.7,3.4,343.1,0.00,0.9,8.4,"00:53:16",1
"23/03/04","01:10",0.0,3.3,84.8,1021.1,329.6,3.0,4.1,329.8,0.00,1.0,8.5,"01:01:14",1
"23/03/04","01:20",0.0,3.2,84.6,1021.1,332.9,3.0,4.3,332.5,0.00,0.9,8.2,"01:10:32",1
"23/03/04","01:30",0.0,3.0,84.7,1021.1,333.8,2.3,3.5,343.6,0.00,0.7,8.3,"01:26:06",1
"23/03/04","01:40",0.0,2.9,85.1,1021.5,339.5,2.5,3.9,317.8,0.00,0.7,8.2,"01:37:56",1
"23/03/04","01:50",0.0,2.8,85.3,1021.5,338.2,2.2,3.3,345.3,0.00,0.6,8.0,"01:43:28",1
"23/03/04","02:00",0.0,2.7,85.5,1021.5,324.4,2.1,2.9,335.7,0.00,0.6,8.3,"01:52:28",1
"23/03/04","02:10",0.0,2.8,85.9,1021.8,334.0,2.3,3.3,312.4,0.00,0.7,8.0,"02:01:46",1
"23/03/04","02:20",0.0,2.8,86.2,1021.8,336.7,2.0,3.3,342.1,0.00,0.8,8.2,"02:19:10",1
"23/03/04","02:30",0.0,2.7,86.3,1021.8,317.6,1.2,2.5,335.2,0.00,0.7,8.0,"02:20:42",1
"23/03/04","02:40",0.0,2.4,86.5,1021.8,277.1,1.2,1.8,316.7,0.00,0.4,7.9,"02:38:26",1
"23/03/04","02:50",0.0,2.4,87.0,1021.5,318.8,2.1,3.1,305.3,0.00,0.5,7.8,"02:49:42",1
"23/03/04","03:00",0.0,2.6,87.2,1022.0,313.7,2.5,3.6,319.6,0.00,0.7,7.9,"02:57:00",1
"23/03/04","03:10",0.0,2.3,87.3,1021.3,284.6,1.1,2.1,326.5,0.00,0.4,7.9,"03:01:10",1
"23/03/04","03:20",0.0,1.8,87.6,1021.8,229.1,0.7,1.9,317.0,0.00,0.0,7.9,"03:19:08",1
"23/03/04","03:30",0.0,2.0,88.0,1021.5,297.6,0.6,1.9,319.6,0.00,0.3,7.8,"03:27:20",1
"23/03/04","03:40",0.0,1.8,88.3,1021.8,326.0,1.7,2.5,329.8,0.00,0.1,7.7,"03:34:34",1
"23/03/04","03:50",0.0,1.8,88.5,1021.5,293.7,1.5,2.2,338.9,0.00,0.1,7.7,"03:40:16",1
"23/03/04","04:00",0.0,1.7,88.8,1021.3,319.1,1.6,2.1,318.7,0.00,0.1,7.7,"03:59:26",1
"23/03/04","04:10",0.0,1.3,89.2,1021.8,308.1,2.1,2.7,319.7,0.00,-0.2,7.6,"04:02:24",1
"23/03/04","04:20",0.0,1.3,89.7,1021.5,304.4,1.7,2.6,326.3,0.00,-0.2,7.5,"04:18:58",1
"23/03/04","04:30",0.0,1.3,89.9,1021.3,312.0,2.0,2.6,313.9,0.00,-0.1,7.7,"04:20:32",1
"23/03/04","04:40",0.0,1.2,90.3,1021.3,301.2,1.5,2.1,326.3,0.00,-0.2,7.7,"04:38:48",1
"23/03/04","04:50",0.0,1.4,90.7,1021.3,299.9,2.0,2.9,322.5,0.00,0.1,7.7,"04:43:12",1
"23/03/04","05:00",0.0,1.3,90.9,1021.5,330.6,1.1,2.1,342.1,0.00,0.0,7.7,"04:50:56",1
"23/03/04","05:10",0.0,0.9,91.2,1021.5,303.2,1.6,2.0,312.0,0.00,-0.3,7.6,"05:03:28",1
"23/03/04","05:20",0.0,0.8,91.5,1021.8,288.9,1.2,1.4,266.2,0.00,-0.4,7.7,"05:12:00",1
"23/03/04","05:30",0.0,1.1,91.8,1021.5,312.8,1.8,2.4,325.8,0.00,0.0,7.4,"05:21:36",1
"23/03/04","05:40",0.0,1.2,92.0,1021.8,315.2,1.6,2.4,310.9,0.00,0.1,7.5,"05:31:12",1
"23/03/04","05:50",0.0,1.0,92.2,1021.5,300.3,1.3,1.9,322.4,0.00,-0.1,7.5,"05:42:16",1
"23/03/04","06:00",0.0,0.7,92.4,1021.8,283.6,0.7,1.2,268.5,0.00,-0.3,7.4,"05:50:08",1
"23/03/04","06:10",0.0,0.7,92.7,1021.8,302.4,1.2,2.1,336.1,0.00,-0.3,7.3,"06:06:56",1
"23/03/04","06:20",0.0,0.5,92.9,1022.0,324.5,1.8,2.4,321.3,0.00,-0.5,7.3,"06:12:32",1
"23/03/04","06:30",0.0,0.5,93.2,1022.0,323.6,1.7,2.1,326.5,0.00,-0.4,7.2,"06:22:24",1
"23/03/04","06:40",0.0,0.7,93.5,1021.5,281.4,1.7,2.7,309.3,0.00,-0.2,7.2,"06:39:52",1
"23/03/04","06:50",0.0,0.8,93.6,1021.8,283.8,1.8,2.6,308.3,0.00,-0.1,7.2,"06:40:08",1
"23/03/04","07:00",0.0,0.9,93.9,1021.5,301.2,2.2,3.3,312.1,0.00,0.1,7.1,"06:55:36",1
"23/03/04","07:10",0.0,0.9,94.0,1021.5,311.6,2.3,3.5,310.2,0.00,0.1,7.1,"07:09:52",1
"23/03/04","07:20",0.0,1.1,94.1,1021.5,297.8,2.2,3.9,315.4,0.00,0.3,7.3,"07:10:08",1
"23/03/04","07:30",0.0,1.3,94.2,1022.0,286.7,2.1,3.5,317.8,0.00,0.5,7.2,"07:28:38",1
"23/03/04","07:40",0.0,1.4,94.2,1022.0,291.8,1.7,2.6,315.5,0.00,0.6,7.3,"07:30:22",1
"23/03/04","07:50",0.0,1.5,94.4,1021.8,299.9,1.8,3.7,322.9,0.01,0.7,7.0,"07:49:12",1
"23/03/04","08:00",0.0,1.8,94.2,1021.8,298.7,2.2,2.9,311.5,0.01,1.0,7.0,"07:50:16",1
"23/03/04","08:10",0.0,2.1,94.1,1022.0,315.2,2.5,4.7,321.1,0.02,1.3,7.0,"08:06:34",1
"23/03/04","08:20",0.0,2.7,93.9,1022.3,300.4,2.3,3.7,331.0,0.04,1.9,6.9,"08:11:30",1
"23/03/04","08:30",0.0,3.4,93.5,1022.5,277.7,1.1,2.5,266.2,0.07,2.5,7.0,"08:20:40",1
"23/03/04","08:40",0.0,3.8,93.0,1023.2,104.0,0.8,1.8,115.3,0.10,2.8,6.9,"08:34:16",1
"23/03/04","08:50",0.0,4.5,92.2,1023.2,164.0,0.6,1.7,114.9,0.12,3.4,7.0,"08:40:08",1
"23/03/04","09:00",0.0,4.9,90.8,1023.7,242.3,0.7,1.8,245.9,0.12,3.6,7.1,"08:59:44",1
"23/03/04","09:10",0.0,5.5,89.5,1023.9,262.5,1.1,1.9,248.8,0.16,4.0,7.0,"09:00:32",1
"23/03/04","09:20",0.0,5.8,86.9,1024.1,262.9,1.1,1.8,320.0,0.17,3.8,7.1,"09:11:20",1
"23/03/04","09:30",0.0,6.6,85.1,1024.4,278.4,0.6,1.7,295.3,0.21,4.3,7.0,"09:29:30",1
"23/03/04","09:40",0.0,7.2,82.3,1024.1,308.6,0.7,2.0,263.5,0.25,4.4,7.0,"09:30:32",1
"23/03/04","09:50",0.0,8.1,78.6,1024.1,325.6,0.7,1.9,339.4,0.25,4.6,7.2,"09:48:20",1
"23/03/04","10:00",0.0,8.8,75.0,1024.4,321.3,0.8,1.7,353.5,0.27,4.7,7.1,"09:52:56",1
"23/03/04","10:10",0.0,9.1,71.7,1024.1,240.3,0.7,1.3,254.0,0.33,4.3,7.2,"10:08:56",1
"23/03/04","10:20",0.0,9.2,70.4,1024.1,216.4,1.0,2.2,198.4,0.32,4.1,7.2,"10:19:44",1
"23/03/04","10:30",0.0,9.2,70.5,1024.1,202.9,1.6,2.5,209.7,0.33,4.2,7.1,"10:27:56",1
"23/03/04","10:40",0.0,9.2,68.9,1023.9,206.8,1.3,2.2,202.9,0.29,3.8,7.4,"10:36:26",1
"23/03/04","10:50",0.0,9.2,68.2,1023.7,155.0,1.3,3.2,130.7,0.26,3.7,7.3,"10:45:42",1
"23/03/04","11:00",0.0,9.6,67.1,1023.7,192.2,1.3,2.5,205.0,0.34,3.8,7.6,"10:57:02",1
"23/03/04","11:10",0.0,10.1,65.6,1023.4,219.2,1.1,2.4,214.0,0.42,4.0,7.5,"11:09:24",1
"23/03/04","11:20",0.0,10.4,64.3,1023.4,202.9,1.1,2.8,196.8,0.37,4.0,7.8,"11:19:50",1
"23/03/04","11:30",0.0,10.6,64.5,1023.7,213.3,1.1,2.5,242.4,0.32,4.2,7.3,"11:29:56",1
"23/03/04","11:40",0.0,11.4,63.5,1023.7,203.3,1.1,2.7,232.9,0.47,4.8,7.5,"11:39:26",1
"23/03/04","11:50",0.0,12.2,59.5,1023.0,118.3,1.2,2.7,334.9,0.59,4.6,7.9,"11:47:20",1
"23/03/04","12:00",0.0,12.9,57.3,1023.2,170.6,1.1,2.4,121.2,0.57,4.7,7.8,"11:58:00",1
"23/03/04","12:10",0.0,13.2,56.0,1022.5,183.9,1.5,2.7,114.0,0.53,4.7,7.8,"12:02:08",1
"23/03/04","12:20",0.0,14.2,53.6,1022.5,302.3,1.1,2.6,211.7,0.55,5.0,7.9,"12:13:12",1
"23/03/04","12:30",0.0,14.2,54.1,1021.5,161.6,1.3,4.8,119.4,0.50,5.1,8.2,"12:28:48",1
"23/03/04","12:40",0.0,14.2,51.6,1022.0,170.3,1.6,3.2,227.4,0.44,4.4,8.3,"12:38:16",1
"23/03/04","12:50",0.0,13.5,52.8,1021.8,252.5,3.1,7.5,245.3,0.37,4.1,8.4,"12:46:32",1
"23/03/04","13:00",0.0,13.7,50.7,1021.5,334.9,2.6,5.9,318.9,0.35,3.7,8.3,"12:57:36",1
"23/03/04","13:10",0.0,13.7,52.5,1021.5,341.3,3.0,5.6,352.1,0.31,4.2,8.5,"13:07:38",1
"23/03/04","13:20",0.0,13.7,50.8,1021.5,312.9,3.0,4.9,334.0,0.36,3.7,8.5,"13:10:16",1
"23/03/04","13:30",0.0,14.1,51.5,1021.1,306.9,2.6,5.8,339.7,0.35,4.3,8.8,"13:28:56",1
"23/03/04","13:40",0.0,13.6,50.1,1021.1,352.2,2.7,5.2,347.6,0.25,3.5,8.9,"13:38:26",1
"23/03/04","13:50",0.0,14.2,50.6,1020.6,327.8,1.7,4.1,333.1,0.31,4.1,9.0,"13:49:34",1
"23/03/04","14:00",0.0,14.1,49.3,1020.8,333.7,2.3,4.8,323.2,0.27,3.7,9.0,"13:52:16",1
"23/03/04","14:10",0.0,14.1,50.0,1020.6,339.0,3.1,6.0,349.9,0.34,3.9,9.0,"14:08:48",1
"23/03/04","14:20",0.0,14.3,50.5,1020.8,336.5,3.6,6.8,323.1,0.42,4.2,9.3,"14:18:08",1
"23/03/04","14:30",0.0,14.3,50.9,1020.1,331.2,3.5,6.6,336.0,0.33,4.3,9.3,"14:20:08",1
"23/03/04","14:40",0.0,14.3,50.2,1020.4,339.7,3.1,5.9,330.7,0.33,4.1,9.2,"14:38:24",1
"23/03/04","14:50",0.0,13.8,50.4,1020.4,340.1,3.9,5.7,333.4,0.27,3.7,9.4,"14:42:24",1
"23/03/04","15:00",0.0,13.9,50.8,1020.6,345.9,3.0,6.5,342.8,0.27,3.9,9.5,"14:53:14",1
"23/03/04","15:10",0.0,13.5,52.3,1020.4,346.5,3.4,7.4,341.5,0.20,4.0,9.3,"15:04:40",1
"23/03/04","15:20",0.0,13.7,51.4,1020.6,352.8,3.0,6.2,345.3,0.25,3.9,9.5,"15:13:54",1
"23/03/04","15:30",0.0,13.5,50.5,1020.8,348.5,3.1,6.5,16.8,0.21,3.5,9.6,"15:28:36",1
"23/03/04","15:40",0.0,13.4,50.6,1020.6,342.5,3.7,6.2,346.3,0.24,3.4,9.5,"15:34:04",1
"23/03/04","15:50",0.0,13.5,49.2,1020.4,353.0,3.0,6.4,352.6,0.23,3.1,9.7,"15:46:16",1
"23/03/04","16:00",0.0,13.8,49.5,1020.4,348.4,3.2,6.7,353.5,0.30,3.5,9.8,"15:58:28",1
"23/03/04","16:10",0.0,13.6,45.9,1020.6,342.4,4.5,8.9,341.9,0.28,2.2,9.7,"16:03:16",1
"23/03/04","16:20",0.0,13.6,46.6,1020.8,346.7,3.6,7.7,325.6,0.24,2.4,9.8,"16:13:40",1
"23/03/04","16:30",0.0,13.6,45.1,1020.6,335.5,3.1,5.8,340.3,0.21,2.0,9.8,"16:25:22",1
"23/03/04","16:40",0.0,13.5,45.6,1020.8,330.4,3.6,7.3,354.6,0.19,2.0,9.7,"16:31:54",1
"23/03/04","16:50",0.0,13.3,45.0,1020.6,338.0,4.1,7.5,324.2,0.19,1.7,9.8,"16:41:28",1
"23/03/04","17:00",0.0,13.6,45.0,1020.6,339.4,2.7,6.3,347.8,0.15,1.9,9.7,"16:58:48",1
"23/03/04","17:10",0.0,13.0,47.3,1020.4,344.0,3.4,5.0,350.6,0.10,2.1,9.7,"17:00:08",1
"23/03/04","17:20",0.0,13.0,48.8,1020.4,343.0,3.4,4.9,344.5,0.10,2.5,9.7,"17:16:10",1
"23/03/04","17:30",0.0,12.5,50.9,1020.8,352.6,3.0,5.2,336.4,0.06,2.7,9.8,"17:22:46",1
"23/03/04","17:40",0.0,11.9,54.8,1020.6,2.2,2.6,5.6,324.5,0.03,3.1,9.9,"17:39:12",1
"23/03/04","17:50",0.0,11.4,57.6,1020.8,339.5,4.7,6.5,334.6,0.02,3.4,10.0,"17:47:28",1
"23/03/04","18:00",0.0,11.1,59.8,1021.1,333.6,4.0,5.1,352.5,0.02,3.6,9.9,"17:50:34",1
"23/03/04","18:10",0.0,10.8,61.6,1021.1,336.1,3.7,5.0,330.1,0.01,3.8,9.9,"18:01:04",1
"23/03/04","18:20",0.0,10.6,61.5,1021.5,340.0,3.0,4.9,335.3,0.00,3.6,9.9,"18:16:44",1
"23/03/04","18:30",0.0,10.2,62.0,1021.3,350.3,3.1,5.4,350.8,0.00,3.3,9.9,"18:28:48",1
"23/03/04","18:40",0.0,9.9,61.8,1021.5,349.3,2.2,5.6,350.6,0.00,3.0,9.8,"18:31:20",1
"23/03/04","18:50",0.0,9.5,62.8,1021.5,350.9,2.3,4.9,342.0,0.00,2.8,9.9,"18:47:32",1
"23/03/04","19:00",0.0,9.2,62.2,1021.5,347.3,2.8,5.7,346.6,0.00,2.4,9.7,"18:59:58",1
"23/03/04","19:10",0.0,9.0,62.5,1021.5,349.5,2.7,4.9,350.7,0.00,2.3,10.0,"19:00:08",1
"23/03/04","19:20",0.0,8.9,62.8,1021.3,341.4,3.1,5.1,354.8,0.00,2.2,10.0,"19:15:22",1
"23/03/04","19:30",0.0,8.8,63.6,1021.5,336.3,2.8,6.0,329.6,0.00,2.3,9.7,"19:21:36",1
"23/03/04","19:40",0.0,8.5,64.9,1021.8,322.9,2.5,4.2,324.8,0.00,2.3,9.8,"19:32:32",1
"23/03/04","19:50",0.0,8.4,65.6,1022.0,330.3,3.0,5.2,323.1,0.00,2.4,9.7,"19:44:24",1
"23/03/04","20:00",0.0,8.3,65.5,1022.0,322.6,3.0,6.5,327.0,0.00,2.3,9.6,"19:52:56",1
"23/03/04","20:10",0.0,8.1,65.7,1022.0,335.9,3.6,6.5,345.1,0.00,2.1,9.7,"20:00:08",1
"23/03/04","20:20",0.0,7.9,66.3,1022.0,330.9,3.1,5.1,323.5,0.00,2.1,9.6,"20:11:12",1
"23/03/04","20:30",0.0,7.7,67.0,1022.3,324.4,3.1,5.9,346.2,0.00,2.0,9.6,"20:27:36",1
"23/03/04","20:40",0.0,7.6,67.3,1022.3,322.9,2.8,4.0,335.2,0.00,2.0,9.3,"20:39:44",1
"23/03/04","20:50",0.0,7.4,67.8,1022.3,323.7,2.3,3.9,315.4,0.00,1.9,9.3,"20:47:44",1
"23/03/04","21:00",0.0,7.3,68.5,1022.3,302.4,2.7,3.7,317.3,0.00,1.9,9.4,"20:58:32",1
"23/03/04","21:10",0.0,7.3,68.6,1022.5,308.7,2.8,4.1,318.4,0.00,2.0,9.3,"21:04:40",1
"23/03/04","21:20",0.0,7.2,68.7,1022.5,309.9,2.7,3.7,311.3,0.00,1.9,9.4,"21:10:08",1
"23/03/04","21:30",0.0,7.2,68.6,1022.7,289.1,2.6,4.1,259.6,0.00,1.9,9.5,"21:24:24",1
"23/03/04","21:40",0.0,7.1,69.0,1022.7,311.6,2.0,2.7,324.5,0.00,1.8,9.1,"21:33:04",1
"23/03/04","21:50",0.0,6.6,70.6,1022.5,322.4,1.8,2.6,337.2,0.00,1.7,9.2,"21:41:52",1
"23/03/04","22:00",0.0,6.0,72.3,1022.3,319.3,2.0,3.1,308.2,0.00,1.4,9.2,"21:59:18",1
"23/03/04","22:10",0.0,6.2,73.4,1022.3,314.6,2.7,4.4,334.3,0.00,1.8,9.2,"22:08:32",1
"23/03/04","22:20",0.0,6.6,73.3,1022.3,308.4,3.1,4.4,310.1,0.00,2.2,9.1,"22:16:16",1
"23/03/04","22:30",0.0,6.4,73.3,1022.3,324.5,2.0,3.3,287.9,0.00,2.0,9.1,"22:20:16",1
"23/03/04","22:40",0.0,5.9,73.9,1022.3,330.3,1.8,2.5,334.2,0.00,1.6,9.0,"22:36:04",1
"23/03/04","22:50",0.0,5.3,74.5,1021.8,285.4,0.7,1.4,307.4,0.00,1.2,8.9,"22:40:10",1
"23/03/04","23:00",0.0,5.1,75.4,1021.5,307.4,1.3,1.7,273.6,0.00,1.2,9.1,"22:53:36",1
"23/03/04","23:10",0.0,5.3,76.7,1021.8,329.6,2.0,3.1,339.6,0.00,1.6,8.9,"23:09:38",1
"23/03/04","23:20",0.0,5.3,78.0,1022.0,334.3,2.3,3.4,338.6,0.00,1.8,8.9,"23:13:04",1
"23/03/04","23:30",0.0,5.2,79.0,1021.8,323.1,2.1,2.8,326.7,0.00,1.9,8.8,"23:27:42",1
"23/03/04","23:40",0.0,5.1,79.8,1021.5,327.8,2.0,2.4,325.3,0.00,1.9,8.8,"23:31:18",1
"23/03/04","23:50",0.0,5.1,80.5,1021.5,316.7,2.1,2.5,315.3,0.00,2.1,8.8,"23:42:22",1
"23/03/04","24:00",0.0,5.2,81.0,1021.5,313.6,1.7,2.5,312.9,0.00,2.3,8.8,"23:54:02",1
